Flag for Greece Weather past 2 weeks in Keratsini, Greece

Now
91 °F

Sunny.


Feels Like: 88 °F
Forecast: 77 / 89 °F
Wind: 14 mph from North

Location: Elefsis Airport

Current Time: Aug 30, 2015 at 7:05:15 PM

Latest Report: Aug 30, 2015 at 6:20 PM


Visibility: 10 mi

Pressure: 30.01 "Hg

Humidity: 21%

Dew point: 46 °F

Location of KeratsiniLocation

Historic Weather in Keratsini — Graph

°F

Keratsini temperature yesterday

Maximum temperature yesterday: 91 °F (at 2:50 PM)
Minimum temperature yesterday: 75 °F (at 1:20 AM)
Average temperature yesterday: 83 °F

Past Weeks' High & Low Weather Summary

 TemperatureHumidityPressure
High97 °F (Aug 17, 1:50 PM)74% (Aug 21, 3:20 PM)30.09 "Hg (Aug 21, 3:20 PM)
Low72 °F (Aug 24, 5:50 AM)12% (Aug 29, 3:20 PM)29.74 "Hg (Aug 15, 6:20 PM)
Average83 °F39%29.91 "Hg
* Reported Aug 15 6:20 PM — Aug 30 5:50 PM, Keratsini, Weather by CustomWeather, © 2015

Note: Actual official high and low records may vary slightly from our data, if they occured in-between our weather recording intervals... More about our weather records

Advertising

Keratsini weather history for previous 24 hours

 ConditionsComfort  
Time TempWeatherWind HumidityBarometerVisibility
5:50 PM
Sun, Aug 30
91 °FSunny.16 mph21%30.01 "Hg10 mi
5:20 PM91 °FSunny.17 mph21%30.01 "Hg10 mi
4:50 PM93 °FSunny.15 mph20%30.01 "Hg10 mi
4:20 PM95 °FSunny.15 mph18%30.04 "Hg10 mi
3:50 PM93 °FSunny.15 mph20%30.04 "Hg10 mi
3:20 PM93 °FSunny.15 mph20%30.04 "Hg10 mi
2:50 PM93 °FSunny.14 mph20%30.04 "Hg10 mi
2:20 PM93 °FPassing clouds.15 mph23%30.04 "HgN/A
1:50 PM93 °FPassing clouds.15 mph23%30.07 "HgN/A
1:20 PM91 °FPassing clouds.14 mph24%30.07 "HgN/A
12:50 PM91 °FSunny.15 mph24%30.07 "Hg10 mi
12:20 PM91 °FSunny.15 mph24%30.07 "Hg10 mi
11:50 AM90 °FSunny.15 mph24%30.07 "Hg10 mi
11:20 AM90 °FSunny.14 mph24%30.07 "Hg10 mi
10:50 AM88 °FSunny.9 mph25%30.09 "Hg10 mi
10:20 AM88 °FSunny.10 mph25%30.09 "Hg10 mi
9:50 AM84 °FSunny.12 mph31%30.09 "Hg10 mi
9:20 AM84 °FSunny.12 mph31%30.09 "Hg10 mi
8:50 AM82 °FSunny.15 mph32%30.07 "Hg10 mi
8:20 AM81 °FSunny.15 mph32%30.07 "Hg10 mi
7:50 AM79 °FClear.13 mph34%30.07 "Hg10 mi
7:20 AM77 °FClear.12 mph36%30.07 "Hg10 mi
6:50 AM77 °FClear.13 mph36%30.07 "Hg10 mi
6:20 AM77 °FClear.12 mph34%30.07 "Hg10 mi
5:50 AM77 °FClear.12 mph34%30.07 "Hg10 mi
5:20 AM77 °FClear.12 mph34%30.07 "Hg10 mi
4:50 AM77 °FClear.9 mph36%30.07 "Hg10 mi
4:20 AM77 °FClear.7 mph36%30.07 "Hg10 mi
3:50 AM77 °FClear.5 mph36%30.07 "Hg10 mi
3:20 AM79 °FClear.5 mph32%30.07 "Hg10 mi
2:50 AM82 °FClear.9 mph28%30.07 "Hg10 mi
2:20 AM81 °FClear.9 mph30%30.07 "Hg10 mi
1:50 AM81 °FClear.8 mph30%30.07 "Hg10 mi
1:20 AM81 °FClear.9 mph30%30.07 "Hg10 mi
12:50 AM81 °FClear.8 mph30%30.09 "Hg10 mi
11:50 PM
Sat, Aug 29
81 °FClear.5 mph30%30.09 "Hg10 mi
11:20 PM81 °FClear.10 mph26%30.07 "Hg10 mi
10:50 PM81 °FClear.9 mph26%30.07 "Hg10 mi
10:20 PM81 °FClear.10 mph26%30.09 "Hg10 mi
9:50 PM82 °FClear.12 mph25%30.07 "Hg10 mi
9:20 PM82 °FClear.14 mph25%30.07 "Hg10 mi
8:50 PM82 °FSunny.10 mph25%30.07 "Hg10 mi
8:20 PM84 °FSunny.12 mph22%30.04 "Hg10 mi
7:50 PM84 °FSunny.12 mph20%30.04 "Hg10 mi
7:20 PM86 °FSunny.15 mph19%30.04 "Hg10 mi
Weather by CustomWeather, © 2015

See weather overviewHow to use our weather pages